Home   Weather   Burnaby   Past weeks

Flag for Canada Past Weather in Burnaby, British Columbia, Canada — Yesterday and Last 2 Weeks

Now
59 °F

Passing clouds.


Feels Like: 59 °F
Forecast: 49 / 71 °F
Wind: 2 mph from North

Location: Vancouver International Airport

Current Time: May 23, 2017 at 12:08:05 am

Latest Report: May 22, 2017 at 11:00 pm


Visibility: 30 mi

Pressure: 30.02 "Hg

Humidity: 82%

Dew Point: 54 °F

Location of BurnabyLocation

Past Weather in Burnaby — Graph

°F

Burnaby Temperature Yesterday

Maximum temperature yesterday: 70 °F (at 3:00 pm)
Minimum temperature yesterday: 50 °F (at 6:00 am)
Average temperature yesterday: 62 °F

High & Low Weather Summary for the Past Weeks

 TemperatureHumidityPressure
High70 °F (May 22, 3:00 pm)100% (May 10, 4:00 am)30.27 "Hg (May 10, 4:00 am)
Low43 °F (May 9, 6:00 am)53% (May 22, 3:00 pm)29.54 "Hg (May 16, 6:00 am)
Average54 °F79%30.01 "Hg
* Reported May 7 10:00 pm — May 22 10:00 pm, Burnaby. Weather by CustomWeather, © 2017

Note: Actual official high and low records may vary slightly from our data, if they occured in-between our weather recording intervals... More about our weather records

Advertising

Burnaby Weather History for the Previous 24 Hours

Scroll right to see more
 ConditionsComfort  
Time TempWeatherWind HumidityBarometerVisibility
10:00 pm
Mon, May 22
59 °FPassing clouds.3 mph88%30.03 "Hg30 mi
9:00 pm64 °FPassing clouds.No wind68%30.03 "Hg30 mi
8:00 pm64 °FScattered clouds.6 mph73%30.04 "Hg30 mi
7:00 pm68 °FScattered clouds.5 mph69%30.04 "Hg30 mi
6:00 pm70 °FPassing clouds.6 mph60%30.06 "Hg30 mi
5:00 pm70 °FPassing clouds.7 mph64%30.08 "Hg30 mi
4:00 pm70 °FScattered clouds.6 mph60%30.10 "Hg30 mi
3:00 pm70 °FPassing clouds.7 mph53%30.12 "Hg30 mi
2:00 pm68 °FPassing clouds.10 mph69%30.15 "Hg30 mi
1:00 pm66 °FPassing clouds.9 mph68%30.15 "Hg30 mi
12:00 pm64 °FBroken clouds.10 mph73%30.17 "Hg30 mi
11:00 am64 °FBroken clouds.7 mph64%30.18 "Hg30 mi
10:00 am64 °FPartly sunny.8 mph64%30.19 "Hg30 mi
9:00 am64 °FOvercast.12 mph56%30.20 "Hg30 mi
8:00 am63 °FMostly cloudy.No wind64%30.19 "Hg30 mi
7:00 am59 °FOvercast.3 mph77%30.19 "Hg30 mi
6:00 am50 °FScattered clouds.2 mph88%30.19 "Hg30 mi
5:00 am52 °FPassing clouds.2 mph82%30.19 "Hg30 mi
4:00 am54 °FPassing clouds.2 mph77%30.19 "Hg20 mi
3:00 am54 °FClear.2 mph77%30.19 "Hg20 mi
2:00 am57 °FClear.No wind77%30.18 "Hg20 mi
1:00 am57 °FPassing clouds.3 mph82%30.18 "Hg20 mi
12:00 am55 °FPassing clouds.2 mph82%30.17 "Hg30 mi
Weather by CustomWeather, © 2017

See weather overviewHow to use our weather pages